TimeEST,TemperatureF,Dew PointF,Humidity,Sea Level PressureIn,VisibilityMPH,Wind Direction,Wind SpeedMPH,Gust SpeedMPH,PrecipitationIn,Events,Conditions,WindDirDegrees,DateUTC
12:15 AM,42.8,26.6,53,30.08,10.0,North,9.2,-,N/A,,Overcast,360,2014-02-06 05:15:00
12:35 AM,41.0,26.6,57,30.10,10.0,North,3.5,-,N/A,,Mostly Cloudy,350,2014-02-06 05:35:00
12:55 AM,41.0,26.6,57,30.10,10.0,Calm,Calm,-,N/A,,Mostly Cloudy,0,2014-02-06 05:55:00
1:15 AM,39.2,26.6,61,30.11,10.0,North,3.5,-,N/A,,Partly Cloudy,350,2014-02-06 06:15:00
1:35 AM,39.2,26.6,61,30.12,10.0,North,3.5,-,N/A,,Clear,10,2014-02-06 06:35:00
1:55 AM,39.2,24.8,56,30.12,10.0,North,5.8,-,N/A,,Clear,10,2014-02-06 06:55:00
2:15 AM,37.4,24.8,60,30.13,10.0,North,5.8,-,N/A,,Clear,10,2014-02-06 07:15:00
2:35 AM,37.4,24.8,60,30.13,10.0,NNE,6.9,-,N/A,,Clear,20,2014-02-06 07:35:00
2:55 AM,37.4,24.8,60,30.13,10.0,NNE,3.5,-,N/A,,Clear,20,2014-02-06 07:55:00
3:15 AM,37.4,23.0,56,30.14,10.0,North,5.8,-,N/A,,Clear,360,2014-02-06 08:15:00
3:35 AM,35.6,23.0,60,30.15,10.0,North,3.5,-,N/A,,Clear,10,2014-02-06 08:35:00
3:55 AM,35.6,23.0,60,30.15,10.0,NNE,3.5,-,N/A,,Clear,20,2014-02-06 08:55:00
4:15 AM,35.6,23.0,60,30.17,10.0,North,3.5,-,N/A,,Clear,10,2014-02-06 09:15:00
4:35 AM,35.6,23.0,60,30.17,10.0,North,3.5,-,N/A,,Clear,10,2014-02-06 09:35:00
4:55 AM,33.8,21.2,60,30.19,10.0,North,4.6,-,N/A,,Clear,350,2014-02-06 09:55:00
5:15 AM,33.8,21.2,60,30.19,10.0,NNE,3.5,-,N/A,,Clear,20,2014-02-06 10:15:00
5:35 AM,33.8,21.2,60,30.19,10.0,Calm,Calm,-,N/A,,Clear,0,2014-02-06 10:35:00
5:55 AM,33.8,21.2,60,30.21,10.0,North,4.6,-,N/A,,Clear,10,2014-02-06 10:55:00
6:15 AM,33.8,19.4,56,30.22,10.0,North,4.6,-,N/A,,Clear,10,2014-02-06 11:15:00
6:35 AM,33.8,21.2,60,30.22,10.0,Calm,Calm,-,N/A,,Clear,0,2014-02-06 11:35:00
6:55 AM,32.0,19.4,60,30.23,10.0,North,3.5,-,N/A,,Clear,10,2014-02-06 11:55:00
7:15 AM,32.0,19.4,60,30.24,10.0,NNE,3.5,-,N/A,,Clear,20,2014-02-06 12:15:00
7:35 AM,32.0,19.4,60,30.25,10.0,Calm,Calm,-,N/A,,Clear,0,2014-02-06 12:35:00
7:55 AM,32.0,21.2,64,30.27,10.0,Calm,Calm,-,N/A,,Clear,0,2014-02-06 12:55:00
8:15 AM,32.0,21.2,64,30.28,10.0,Calm,Calm,-,N/A,,Clear,0,2014-02-06 13:15:00
8:35 AM,33.8,21.2,60,30.28,10.0,NE,3.5,-,N/A,,Clear,40,2014-02-06 13:35:00
8:55 AM,33.8,21.2,60,30.30,10.0,NNE,5.8,-,N/A,,Clear,20,2014-02-06 13:55:00
9:15 AM,35.6,21.2,56,30.30,10.0,NE,5.8,-,N/A,,Clear,40,2014-02-06 14:15:00
9:35 AM,35.6,19.4,52,30.30,10.0,NNE,6.9,-,N/A,,Clear,20,2014-02-06 14:35:00
9:55 AM,35.6,19.4,52,30.31,10.0,NNE,5.8,-,N/A,,Clear,20,2014-02-06 14:55:00
10:15 AM,37.4,21.2,52,30.31,10.0,NNE,4.6,-,N/A,,Clear,20,2014-02-06 15:15:00
10:35 AM,37.4,19.4,48,30.32,10.0,NE,6.9,-,N/A,,Clear,40,2014-02-06 15:35:00
10:55 AM,37.4,19.4,48,30.31,10.0,ENE,8.1,-,N/A,,Scattered Clouds,70,2014-02-06 15:55:00
11:15 AM,39.2,21.2,49,30.32,10.0,NE,6.9,-,N/A,,Scattered Clouds,40,2014-02-06 16:15:00
11:35 AM,39.2,21.2,49,30.30,10.0,NE,6.9,-,N/A,,Clear,50,2014-02-06 16:35:00
11:55 AM,39.2,21.2,49,30.30,10.0,NNE,5.8,-,N/A,,Clear,20,2014-02-06 16:55:00
12:15 PM,41.0,21.2,45,30.28,10.0,NE,6.9,-,N/A,,Clear,40,2014-02-06 17:15:00
12:35 PM,42.8,21.2,42,30.27,10.0,North,4.6,-,N/A,,Clear,10,2014-02-06 17:35:00
12:55 PM,42.8,21.2,42,30.27,10.0,NNW,5.8,-,N/A,,Clear,340,2014-02-06 17:55:00
1:15 PM,42.8,21.2,42,30.25,10.0,NNE,4.6,-,N/A,,Clear,20,2014-02-06 18:15:00
1:35 PM,41.0,21.2,45,30.25,10.0,NE,6.9,-,N/A,,Clear,50,2014-02-06 18:35:00
1:55 PM,42.8,21.2,42,30.24,10.0,NNE,5.8,-,N/A,,Clear,30,2014-02-06 18:55:00
2:15 PM,42.8,21.2,42,30.26,9.0,Calm,Calm,-,N/A,,Clear,0,2014-02-06 19:15:00
2:35 PM,42.8,21.2,42,30.25,10.0,Calm,Calm,-,N/A,,Clear,0,2014-02-06 19:35:00
2:55 PM,42.8,19.4,39,30.24,10.0,Calm,Calm,-,N/A,,Clear,0,2014-02-06 19:55:00
3:15 PM,42.8,21.2,42,30.23,10.0,ENE,3.5,-,N/A,,Clear,60,2014-02-06 20:15:00
3:35 PM,42.8,21.2,42,30.23,10.0,Calm,Calm,-,N/A,,Clear,0,2014-02-06 20:35:00
3:55 PM,42.8,21.2,42,30.24,10.0,Calm,Calm,-,N/A,,Clear,0,2014-02-06 20:55:00
4:15 PM,41.0,21.2,45,30.26,10.0,Calm,Calm,-,N/A,,Clear,0,2014-02-06 21:15:00
4:35 PM,41.0,21.2,45,30.26,10.0,Calm,Calm,-,N/A,,Clear,0,2014-02-06 21:35:00
4:55 PM,41.0,21.2,45,30.25,10.0,Calm,Calm,-,N/A,,Clear,0,2014-02-06 21:55:00
5:15 PM,39.2,21.2,49,30.26,10.0,Calm,Calm,-,N/A,,Clear,0,2014-02-06 22:15:00
5:35 PM,39.2,21.2,49,30.25,10.0,Calm,Calm,-,N/A,,Clear,0,2014-02-06 22:35:00
5:55 PM,39.2,21.2,49,30.26,10.0,Calm,Calm,-,N/A,,Clear,0,2014-02-06 22:55:00
6:15 PM,39.2,21.2,49,30.26,10.0,Calm,Calm,-,N/A,,Clear,0,2014-02-06 23:15:00
6:35 PM,39.2,23.0,52,30.27,10.0,Calm,Calm,-,N/A,,Clear,0,2014-02-06 23:35:00
6:55 PM,39.2,23.0,52,30.26,10.0,Calm,Calm,-,N/A,,Clear,0,2014-02-06 23:55:00
7:15 PM,37.4,24.8,60,30.29,10.0,Calm,Calm,-,N/A,,Clear,0,2014-02-07 00:15:00
7:35 PM,37.4,24.8,60,30.29,10.0,North,3.5,-,N/A,,Scattered Clouds,360,2014-02-07 00:35:00
7:55 PM,37.4,24.8,60,30.30,10.0,Calm,Calm,-,N/A,,Overcast,0,2014-02-07 00:55:00
8:15 PM,37.4,23.0,56,30.30,10.0,Calm,Calm,-,N/A,,Overcast,0,2014-02-07 01:15:00
8:35 PM,37.4,24.8,60,30.33,10.0,Calm,Calm,-,N/A,,Overcast,0,2014-02-07 01:35:00
8:55 PM,37.4,24.8,60,30.32,10.0,Calm,Calm,-,N/A,,Overcast,0,2014-02-07 01:55:00
9:15 PM,37.4,24.8,60,30.31,10.0,Calm,Calm,-,N/A,,Overcast,0,2014-02-07 02:15:00
9:35 PM,37.4,24.8,60,30.30,10.0,Calm,Calm,-,N/A,,Mostly Cloudy,0,2014-02-07 02:35:00
9:55 PM,37.4,24.8,60,30.29,10.0,Calm,Calm,-,N/A,,Mostly Cloudy,0,2014-02-07 02:55:00
10:15 PM,37.4,24.8,60,30.31,10.0,Calm,Calm,-,N/A,,Mostly Cloudy,0,2014-02-07 03:15:00
10:35 PM,37.4,24.8,60,30.30,10.0,Calm,Calm,-,N/A,,Overcast,0,2014-02-07 03:35:00
10:55 PM,37.4,24.8,60,30.29,10.0,SE,3.5,-,N/A,,Overcast,130,2014-02-07 03:55:00
11:15 PM,37.4,24.8,60,30.29,10.0,Calm,Calm,-,N/A,,Overcast,0,2014-02-07 04:15:00
11:35 PM,37.4,24.8,60,30.30,10.0,Calm,Calm,-,N/A,,Overcast,0,2014-02-07 04:35:00
11:55 PM,37.4,24.8,60,30.29,10.0,Calm,Calm,-,N/A,,Mostly Cloudy,0,2014-02-07 04:55:00